Погода в Ножкине

Россия / Костромская область     58°49′08″N   42°36′42″E
темп.,
°C
ветер,
м/с
пор.,
м/с
влажн.,
%
обл.,
%
осадки,
мм/ч
давл.,
гПа
погр.,
м
16 октября, сб
сб1600:00+3юз411925 0.0 1012469
03:00+4ююз41084100 0.0 1011998
06:00+5ююз51291100 0.0 1010684
09:00+6ююз51390100 0.1 1009785
12:00+6ююз61386100 0.0 1008842
15:00+8ююз61481100 0.0 10061005
18:00+7ююз71488100 0.8 10061389
21:00+6юз51093100 3.1 1007937
17 октября, вс
вс1700:00+4юз4119359 0.1 1007581
03:00+4юз51085100 0.1 1007704
06:00+4юз51283100 0.0 1007787
09:00+4юз51289100 0.0 1007836
12:00+5юз5980100 0.1 10071092
15:00+6юз51180100 0.2 10061303
18:00+5юз51082100 0.1 10071045
21:00+5юз51084100 0.1 1006981
18 октября, пн
пн1800:00+5юз498270 0.1 1006785
03:00+4зюз488193 0.1 1006703
06:00+3юз3993100 0.0 1006462
09:00+4юз3791100 0.0 1005495
12:00+5юз3473100 0.1 1004903
15:00+5ююз2282100 0.4 1002525
18:00+1зсз31094100 4.7 1004444
21:00+1зюз38927 5.1 1004308
19 октября, вт
вт1900:000зюз269719 0.0 1005164
03:00−1зюз259694 0.0 1006126
06:00+1юз269698 0.0 1007410
09:00+1зсз2693100 0.2 1008659
12:00+2зсз3789100 0.1 1009614
15:00+2зсз3787100 0.3 1010683
18:00+1зсз389192 0.1 1012504
21:000сз379597 0.3 1013556
20 октября, ср
ср2000:00−1сз2794100 0.1 1015306
03:00−2сз279380 0.1 1016303
06:00−3зсз38935 0.0 1017317
09:00−1сз368427 0.0 1018456
12:00+1зсз356391 0.0 10191142
15:00+1з35619 0.1 10181257
18:00−2юз2582100 0.0 1018103
21:00−1ююз3882100 0.0 1016472